Regional Weather Roundup
Issued by NWS

Home | Current Version | Previous Version | Graphics & Text | Print | Product List | Glossary On
Versions: 1 2 3 4 5 6 7 8 9 10 11 12 13 14 15 16 17 18 19 20 21 22 23 24 25 26 27 28 29 30 31 32 33 34 35 36 37 38 39 40 41 42 43 44 45 46 47 48 49 50
000
ASUS44 KMEG 101610
RWRTN
TENNESSEE HOURLY STATE WEATHER ROUNDUP
NATIONAL WEATHER SERVICE MEMPHIS TN
1100 AM CDT THU JUL 10 2014

TNZ002-004-019-021-049-052-054-088>092-101700-
WEST TENNESSEE

CITY           SKY/WX    TMP DP  RH WIND       PRES   REMARKS
MEMPHIS INTL   PTSUNNY   87  65  47 CALM      30.11R
NWS MEMPHIS      N/A     85 N/A N/A MISG        N/A
JACKSON        MOSUNNY   84  64  50 CALM      30.11S
DYERSBURG      PTSUNNY   84  61  45 CALM      30.11S
UNION CITY     SUNNY     82  64  54 CALM      30.10R
PARIS          SUNNY     82  61  49 CALM      30.12R
LEXINGTON      SUNNY     81  63  54 VRB3      30.10F
SAVANNAH       MOSUNNY   84  69  60 CALM      30.11S
$$

TNZ008-025-027-028-033-062-065-066-101700-
NORTH MIDDLE TENNESSEE

CITY           SKY/WX    TMP DP  RH WIND       PRES   REMARKS
NASHVILLE      MOSUNNY   83  65  54 E6        30.12R
DICKSON        MOSUNNY   81  63  54 CALM      30.12F
PORTLAND       SUNNY     82  61  47 W6        30.11S
CLARKSVILLE    MOSUNNY   84  60  44 SE5       30.10F
LEBANON        MOSUNNY   82  62  50 NE3       30.11R
SMYRNA         MOSUNNY   86  64  47 VRB5      30.12S
MURFREESBORO   MOSUNNY   81  66  60 CALM      30.11R
COOKEVILLE     SUNNY     81  70  69 CALM      30.12S
LIVINGSTON     MOSUNNY   80  62  54 CALM      30.14S
GALLATIN       MOSUNNY   83  64  52 CALM      30.13R
CROSSVILLE     MOSUNNY   78  63  59 N3        30.17R
$$

TNZ061-075-076-078-094-096-097-101700-
SOUTH MIDDLE TENNESSEE

CITY           SKY/WX    TMP DP  RH WIND       PRES   REMARKS
LEWISBURG      MOSUNNY   82  65  56 VRB5      30.11S
TULLAHOMA      SUNNY     81  66  61 NE3       30.14S
WINCHESTER     PTSUNNY   81  70  69 N6        30.12S
MCMINNVILLE    SUNNY     81  68  65 E3        30.13S
COLUMBIA       MOSUNNY   82  70  65 CALM      30.10S
$$

TNZ017-018-042-046-047-101700-
NORTHEAST TENNESSEE

CITY           SKY/WX    TMP DP  RH WIND       PRES   REMARKS
TRI CITIES     NOT AVBL
ELIZABETHTON   SUNNY     79  66  65 VRB3      30.13F
$$

TNZ012-013-036-069-073-074-101700-
CENTRAL EAST TENNESSEE

CITY           SKY/WX    TMP DP  RH WIND       PRES   REMARKS
KNOXVILLE      PTSUNNY   79  70  74 NW6       30.12R
OAK RIDGE      MOSUNNY   77  68  73 S3        30.14R
$$

TNZ083-085-099-101700-
SOUTHEAST TENNESSEE

CITY           SKY/WX    TMP DP  RH WIND       PRES   REMARKS
CHATTANOOGA    PTSUNNY   82  69  64 CALM      30.12R
$$

SKY/WX REPORTED AS FAIR MEANS FEW OR NO CLOUDS BELOW
12 THOUSAND FEET.




USA.gov is the U.S. government's official web portal to all federal, state and local government web resources and services.